Regional Weather Roundup
Issued by NWS

Home | Current Version | Previous Version | Graphics & Text | Print | Product List | Glossary On
Versions: 1 2 3 4 5 6 7 8 9 10 11 12 13 14 15 16 17 18 19 20 21 22 23 24 25 26 27 28 29 30 31 32 33 34 35 36 37 38 39 40 41 42 43 44 45 46 47 48 49 50
000
ASUS43 KIND 300509
RWRIN

WEATHER ROUNDUP FOR INDIANA
NATIONAL WEATHER SERVICE INDIANAPOLIS IN
100 AM EDT FRI SEP 30 2016

NOTE: "FAIR" INDICATES FEW OR NO CLOUDS BELOW 12,000 FEET WITH NO
SIGNIFICANT WEATHER AND/OR OBSTRUCTIONS TO VISIBILITY.

* - STATION DOES NOT REPORT WEATHER SUCH AS PRECIPITATION OR FOG.

+ - STATION NOT QUALITY CONTROLLED BY THE NATIONAL WEATHER SERVICE.
    USE DATA WITH CAUTION...ESPECIALLY DEWPOINT AND RELATIVE
    HUMIDITY OBSERVATIONS.

INZ001>003-010>013-019-020-300600-
NORTHWEST INDIANA

CITY           SKY/WX    TMP DP  RH WIND       PRES   REMARKS
GARY /AIRPORT/ DRIZZLE   63  59  88 NE17      30.18F
KNOX *+        CLOUDY    57  46  67 N10       30.14F
LA PORTE +     DRIZZLE  N/A N/A N/A N9        30.16F
MICHIGAN CITY+ RAIN      57  57 100 CALM      30.17F
MONTICELLO +   CLOUDY    59  55  87 N9        30.12S
RENSSELAER +   CLOUDY    59  59 100 N8        30.14F
VALPARAISO     LGT RAIN  59  57  93 N9        30.16F

$$

LMZ046-743>745-300600-
SOUTHERN LAKE MICHIGAN

STATION/POSITION TIME  TEMP    WIND        PRES    WAVE
                       AIR SEA DIR/SP/G            HT
                 (UTC) (F)     (DEG/KT/KT) (MB)    (FT)
BURNS HARBOR     0440   62      50/ 21/ 25 1021.7F
MICHIGAN CITY    0440   60      10/ 21/ 23   N/A
5NW MICH CITY    0500   61 64   40/ 17/ 23   N/A     6

$$

INZ004-005-014>016-021>024-300600-
NORTH CENTRAL INDIANA

CITY           SKY/WX    TMP DP  RH WIND       PRES   REMARKS
GOSHEN         CLOUDY    60  56  86 NE10      30.13F
LOGANSPORT +   CLOUDY    59  57  94 N7        30.10F
PERU/GRISSOM   CLOUDY    60  60 100 N9        30.08F
ROCHESTER +    CLOUDY    61  61 100 NE7       30.12F
SOUTH BEND     CLOUDY    58  57  97 NE13      30.16S
WARSAW +       CLOUDY    59  59 100 NE8       30.12F

$$

INZ006>009-017-018-025>027-300600-
NORTHEAST INDIANA

CITY           SKY/WX    TMP DP  RH WIND       PRES   REMARKS
ANGOLA *+        N/A     59  48  67 NE9       30.12F
AUBURN +       CLOUDY    59  57  94 NE9G16    30.11F
FORT WAYNE     CLOUDY    61  58  90 NE9       30.10F
HUNTINGTON +   CLOUDY    60  58  96 NE5       30.09F
KENDALLVILLE + DRIZZLE   59  59 100 NE10      30.12F

$$

INZ028-029-035-036-043>045-051>053-300600-
WEST CENTRAL INDIANA

CITY           SKY/WX    TMP DP  RH WIND       PRES   REMARKS
CRAWFORDSVL +  CLOUDY    58  56  96 N6        30.10F
GREENCASTLE +  CLOUDY    57  55  94 N5        30.09F
LAFAYETTE      LGT RAIN  60  59  96 N8        30.10F
TERRE HAUTE    CLOUDY    58  53  84 N3        30.09F

$$

INZ030>032-037>040-046>048-054>057-064-065-300600-
CENTRAL INDIANA

CITY           SKY/WX    TMP DP  RH WIND       PRES   REMARKS
FISHERS *+     CLOUDY    57  57 100 CALM      30.09
FRANKFORT +    CLOUDY    62  60  94 N8        30.11F
INDIANAPOLIS   CLOUDY    61  57  87 NW5       30.08F
-EAGLE CREEK   CLOUDY    61  56  83 N6        30.08F
KOKOMO *+      CLOUDY    61  59  94 NE9       30.09F
MARION +       CLOUDY    60  58  95 NE5       30.09F FOG
MT COMFORT *+  CLOUDY    59  55  88 N3        30.09S
SHELBYVILLE    CLOUDY    60  56  86 CALM      30.06F
ZIONSVILLE +   CLOUDY    59  57  94 N6        30.09F

$$

INZ033-034-041-042-049-050-058-059-300600-
EAST CENTRAL INDIANA

CITY           SKY/WX    TMP DP  RH WIND       PRES   REMARKS
MUNCIE         CLOUDY    61  59  93 E5        30.09R

$$

INZ060-061-067>069-081>083-085>088-300600-
SOUTHWEST INDIANA

CITY           SKY/WX    TMP DP  RH WIND       PRES   REMARKS
EVANSVILLE     CLOUDY    58  53  84 NE3       30.09F
HUNTINGBURG *+   N/A     55  52  88 CALM      30.08F
WASHINGTON +   MOCLDY    56  56 100 MISG      30.07F

$$

INZ062-063-066-070>080-084-089>092-300600-
SOUTH CENTRAL AND SOUTHEAST INDIANA

CITY           SKY/WX    TMP DP  RH WIND       PRES   REMARKS
BLOOMINGTON    CLOUDY    57  53  86 N6        30.08S
MADISON *+     CLOUDY    55  54  94 CALM      30.07F
NORTH VERNON + DRIZZLE  N/A N/A N/A CALM      30.07F
SEYMOUR +      CLOUDY    57  55  94 CALM      30.06F

$$





USA.gov is the U.S. government's official web portal to all federal, state and local government web resources and services.